Theta_e
290 284 283 284 287 289 288 286 287 291 295 293 295 295 296 299 306 312 310 309 308 308 305 307 309 310 313 317 315 310 308 306 305 303 301 300 298 297 297 297 298 297 296 296
284 281 286 288 289 289 288 286 284 289 292 291 292 292 295 297 298 307 309 308 307 302 303 304 306 309 313 316 314 311 307 306 307 306 302 300 298 297 296 296 296 295 295 294
281 285 289 287 285 285 285 285 285 285 289 292 290 288 290 297 298 298 309 309 307 302 303 303 304 305 308 311 311 309 307 307 306 302 300 298 296 295 294 293 293 294 294 293
283 287 286 285 284 286 282 288 288 287 284 280 288 280 289 293 294 296 302 305 304 303 303 304 302 302 304 305 307 307 306 304 302 301 299 296 294 292 293 293 292 292 292 291
282 284 283 282 283 287 284 290 286 288 285 282 282 281 287 290 289 293 295 303 301 301 301 302 301 302 301 301 302 302 301 302 301 300 299 297 295 294 293 292 291 291 290 290
285 288 287 285 287 289 290 288 288 288 285 277 282 282 283 288 291 293 297 302 301 300 300 300 300 299 298 300 301 301 301 299 300 300 299 296 294 293 291 290 289 288 288 288
281 281 285 288 284 288 287 284 276 275 275 275 283 282 285 292 295 296 297 299 301 300 298 296 295 296 295 297 299 300 300 298 299 298 297 296 295 294 291 291 289 287 287 287
272 272 281 289 286 283 284 284 276 268 270 272 284 280 284 293 298 300 301 302 299 298 295 295 296 295 295 296 297 298 298 297 298 297 296 295 295 293 292 291 290 288 287 286
277 276 284 286 288 288 284 280 286 279 278 276 282 286 291 293 295 298 298 294 294 294 294 293 294 294 295 295 295 296 296 296 296 296 295 294 293 292 291 290 289 288 286 287
281 275 283 284 289 290 284 289 279 280 272 273 280 282 283 288 291 296 297 294 294 294 294 293 294 293 294 295 295 295 295 294 294 293 293 292 291 290 290 289 288 287 287 286
283 280 278 282 280 281 282 282 283 282 281 275 275 280 288 287 292 294 296 296 294 294 293 293 293 293 292 292 292 292 292 292 292 292 291 290 290 289 289 288 287 286 286 286
284 282 273 276 282 288 287 282 282 275 275 281 279 280 288 287 288 295 293 293 293 294 293 293 292 290 290 290 290 290 290 290 290 290 289 289 289 288 287 287 286 286 285 285
285 277 272 270 278 285 283 284 285 283 283 279 277 280 288 288 290 294 291 292 291 291 291 290 289 289 289 288 289 289 289 289 288 288 288 287 287 287 286 285 285 285 283 283
285 281 278 269 275 281 279 281 283 283 279 279 281 283 285 286 289 292 289 290 290 291 291 289 289 289 289 288 288 288 288 288 287 287 287 286 285 285 285 284 284 283 283 281
279 275 278 278 279 280 281 280 281 281 282 279 282 283 288 284 288 291 291 290 291 291 290 289 288 288 288 287 288 288 287 287 287 286 286 285 285 284 284 283 283 282 281 281
282 271 273 273 279 279 279 280 280 282 282 282 283 283 291 285 289 290 291 291 291 290 290 290 289 289 288 287 286 287 286 286 286 285 285 285 284 283 283 282 281 281 280 279
279 276 274 266 276 275 269 276 279 280 282 283 280 285 291 289 288 288 289 290 290 291 291 290 289 289 289 288 288 287 286 286 285 284 284 283 283 282 282 281 280 280 279 279
276 276 276 268 270 263 276 280 280 280 282 283 283 286 288 290 289 290 290 289 289 289 289 289 288 288 289 289 288 287 286 284 283 283 283 282 282 282 281 280 280 279 279 278
282 278 271 268 261 271 278 279 278 278 280 280 281 285 285 286 287 286 290 290 290 289 288 288 288 287 287 286 286 284 283 283 283 282 282 282 282 281 280 279 279 278 278 278
280 280 273 262 263 265 281 281 280 280 274 281 281 284 283 285 284 287 286 290 289 288 288 286 285 285 285 283 284 284 283 283 282 282 283 282 281 280 280 279 278 278 277 279
263 263 269 272 267 272 282 281 282 271 276 280 280 283 283 284 285 285 286 288 289 287 286 285 285 284 284 283 284 283 282 282 283 282 282 280 280 280 279 278 275 275 275 277
266 268 270 266 269 268 282 281 279 285 280 279 280 283 282 283 283 284 286 286 286 285 284 284 283 282 282 282 283 281 281 283 282 281 280 278 277 278 278 275 272 271 272 272
266 274 270 273 275 282 281 284 284 282 282 279 280 281 283 283 282 283 284 283 284 284 283 283 283 281 280 282 283 282 283 281 280 277 277 276 274 275 275 272 273 272 271 271
272 274 271 273 275 277 279 281 281 283 282 282 281 281 281 283 282 282 284 283 283 283 282 281 281 280 280 279 280 280 280 280 278 277 276 274 275 273 271 275 274 272 271 271
274 273 271 271 275 277 278 279 280 282 282 282 281 280 281 283 282 281 282 283 283 282 282 281 280 280 279 278 277 275 278 278 278 276 275 275 274 273 273 273 273 274 274 275
273 273 272 271 276 276 277 277 278 279 281 281 281 280 281 281 282 281 281 282 282 281 280 277 276 277 277 277 277 275 275 278 277 276 274 274 274 271 271 271 272 279 281 281
Wind_Speed
4 1 12 9 10 14 13 16 18 12 3 6 14 14 10 11 14 20 18 19 18 15 10 10 11 10 12 12 13 13 14 12 11 9 9 6 6 5 5 5 6 6 6 6
3 10 13 8 11 12 15 16 18 13 12 7 12 18 9 14 11 16 20 19 20 14 14 11 11 11 10 15 13 13 12 13 10 8 6 5 7 5 5 4 6 5 6 5
5 10 10 9 9 12 13 16 18 15 2 9 9 9 16 9 11 13 18 21 20 24 20 15 14 11 8 11 13 13 13 14 10 11 10 9 9 6 4 4 4 5 6 6
9 4 2 5 8 10 16 6 18 14 8 9 3 6 9 11 9 8 13 20 18 18 17 17 13 13 10 7 9 12 12 12 12 13 12 16 8 9 4 4 3 5 6 7
8 8 13 15 13 4 13 8 20 16 11 9 7 7 2 9 6 8 9 12 21 19 20 19 16 13 10 8 8 9 12 11 11 8 11 9 10 7 7 6 7 6 5 7
16 5 7 13 14 7 4 8 15 5 7 10 13 12 6 10 14 13 11 4 12 19 17 16 12 12 10 9 9 10 12 11 12 11 11 11 13 12 8 7 5 3 4 4
13 5 6 5 6 4 5 6 4 4 5 6 9 10 16 9 14 17 19 12 15 16 18 16 20 13 12 13 12 11 12 11 11 12 13 13 12 10 9 9 5 6 4 3
4 12 3 3 3 5 8 6 4 6 3 5 8 11 6 4 6 10 13 17 17 12 14 17 17 16 13 14 13 12 12 12 12 14 14 13 9 6 7 6 4 4 3 4
7 7 6 14 7 8 0 6 4 6 3 3 5 5 5 1 4 7 15 16 18 15 10 14 12 13 10 13 14 15 12 10 11 13 12 11 10 8 7 7 4 4 4 5
5 15 8 6 3 5 2 3 1 1 4 6 2 2 2 3 4 9 13 14 14 13 12 11 11 13 10 8 10 17 12 8 11 12 12 10 11 9 8 8 7 7 5 5
9 7 7 7 3 3 4 6 5 2 4 3 7 3 3 5 3 4 12 14 16 14 14 12 10 11 13 10 9 12 14 9 8 10 9 11 10 8 7 6 6 6 5 6
3 6 5 11 5 2 3 4 7 3 4 3 3 6 6 7 6 3 8 9 10 11 12 11 12 10 11 13 10 12 11 10 7 9 11 11 11 9 8 7 6 6 7 5
5 5 6 11 5 2 2 2 6 5 3 3 3 4 4 7 7 4 12 11 11 12 14 12 10 12 8 13 11 11 11 10 8 9 10 10 10 9 8 7 6 6 6 5
3 5 5 5 6 4 6 5 1 4 2 5 4 5 9 8 5 3 7 11 11 12 14 13 11 11 9 11 11 10 11 10 10 9 9 8 9 8 8 7 6 6 6 6
3 5 5 13 14 12 14 10 5 3 7 4 3 7 8 6 2 3 5 8 10 10 11 11 12 11 10 9 10 10 9 10 10 11 9 8 7 7 7 6 6 6 6 5
1 6 4 7 4 6 10 10 9 6 6 8 7 9 1 3 3 4 7 9 9 10 10 9 11 12 12 12 10 11 10 10 10 11 10 9 8 7 7 6 6 6 5 5
3 3 4 7 5 7 6 7 6 4 5 5 6 7 2 7 5 3 6 6 8 10 11 12 13 12 12 13 13 12 11 10 10 9 8 9 8 8 7 6 6 5 6 5
3 2 3 6 8 4 6 4 4 5 10 8 9 5 5 2 1 1 4 8 7 9 11 12 12 13 12 12 12 11 9 8 8 7 8 7 8 7 6 6 6 5 5 5
8 1 4 2 2 8 4 5 3 4 5 4 6 6 2 3 4 2 5 5 7 7 8 9 10 10 12 13 12 10 10 9 8 8 9 9 8 8 7 6 7 5 4 4
2 4 2 3 1 3 3 4 2 1 5 5 4 6 3 2 1 3 3 4 5 6 6 8 8 7 9 8 11 12 11 10 11 10 10 8 7 7 8 7 6 4 4 5
1 2 7 6 4 8 7 4 1 5 5 5 3 5 4 2 3 5 4 3 5 6 8 8 10 11 11 10 11 11 9 13 9 7 6 7 7 7 7 5 3 3 4 4
7 5 6 1 3 7 5 1 2 4 1 3 3 3 1 3 2 3 5 2 5 6 7 8 9 7 7 9 11 9 12 8 7 7 7 6 7 5 4 6 3 2 4 3
4 7 4 9 7 4 4 4 1 2 3 2 4 2 3 4 3 4 2 2 3 6 7 6 9 8 6 10 11 12 10 8 8 7 6 6 3 4 4 5 4 2 2 4
6 4 4 3 4 6 8 6 6 6 7 3 3 4 3 4 3 3 4 4 3 4 6 6 8 7 7 6 6 5 8 8 8 7 7 4 5 3 2 3 4 4 4 4
6 5 5 8 12 13 10 6 6 5 5 4 2 2 5 5 3 2 0 2 3 4 3 5 6 6 6 6 5 4 7 8 8 5 5 5 4 6 5 5 5 6 7 7
8 9 7 9 8 4 6 4 3 2 4 6 5 4 3 2 3 1 2 2 3 5 4 4 4 5 6 7 7 5 5 8 8 6 4 5 5 3 2 3 4 12 15 13
Wind_Direction
301 139 239 242 238 255 266 274 273 266 29 283 237 240 257 284 273 202 185 174 169 169 147 148 145 142 130 136 138 141 137 144 136 136 128 121 120 108 90 86 83 85 87 85
333 242 259 243 245 253 271 277 263 252 277 250 272 240 197 267 263 261 185 186 169 149 148 158 141 148 158 147 148 147 149 152 149 146 128 115 127 99 102 96 87 80 82 89
217 256 299 263 271 260 262 263 265 257 256 244 276 254 234 206 270 342 224 190 178 159 166 167 159 148 149 144 157 153 156 150 151 136 122 111 103 109 110 109 98 80 89 90
263 255 235 304 265 230 269 281 248 231 237 252 237 279 225 184 218 304 290 174 177 170 169 162 167 150 157 139 148 148 150 149 145 146 146 146 146 147 143 130 108 107 91 92
262 287 299 288 263 197 270 213 263 247 226 248 210 264 251 146 207 209 305 242 172 174 170 167 165 157 144 133 141 138 139 142 139 141 142 136 122 107 116 120 117 108 100 91
258 269 254 248 263 226 272 255 249 263 228 237 235 218 194 189 203 194 193 272 232 174 170 151 142 141 142 139 136 143 136 135 135 134 116 115 122 120 124 129 126 119 104 100
306 259 288 219 268 238 244 271 276 239 221 237 198 215 240 241 193 191 184 190 203 196 161 159 147 158 151 149 142 142 144 132 124 119 117 121 126 133 147 133 154 140 125 110
311 320 330 342 167 313 290 231 268 257 228 277 160 224 237 304 189 173 173 175 161 205 164 166 157 150 157 148 149 139 141 142 140 130 124 122 134 138 135 122 172 121 123 141
297 258 311 291 285 172 357 225 202 263 263 204 238 282 287 278 130 137 160 157 168 161 183 153 150 136 155 155 143 135 140 131 141 136 129 135 137 144 130 130 121 114 140 127
283 289 247 282 306 224 200 330 243 198 284 267 258 274 220 267 175 188 180 171 168 157 156 153 149 137 134 146 149 120 118 147 138 132 136 134 131 131 137 132 145 150 136 134
274 240 296 348 240 208 11 318 231 235 222 256 310 278 273 288 295 179 174 181 166 164 156 145 139 130 126 133 130 120 114 134 142 124 118 133 126 115 121 138 149 134 144 142
296 288 280 241 255 157 112 222 276 182 293 229 238 269 297 330 328 179 160 159 149 146 137 141 142 135 135 123 132 130 119 131 144 132 133 131 131 136 136 146 145 154 143 134
348 292 308 337 353 96 60 97 274 289 353 272 288 322 338 352 320 173 145 150 145 139 133 132 128 129 153 132 146 131 133 143 140 139 135 143 140 143 147 147 153 143 135 129
299 268 249 228 252 299 266 253 247 288 263 297 278 311 336 9 24 155 155 143 148 151 147 140 144 138 157 141 134 140 146 156 148 142 138 153 145 147 152 150 148 142 139 137
81 279 311 291 274 268 270 280 264 215 266 237 303 340 334 345 300 223 159 138 153 155 144 152 146 141 143 138 140 153 152 161 156 143 156 159 139 139 146 149 148 137 146 162
11 280 307 288 317 311 275 287 288 214 249 278 280 296 263 319 130 121 162 162 156 162 162 153 148 153 153 147 162 158 165 165 156 159 159 151 150 153 152 149 149 153 162 165
274 315 314 277 318 327 335 265 248 284 195 220 211 237 201 341 348 200 168 180 173 171 168 170 165 164 164 166 167 175 176 160 161 157 155 153 154 155 161 162 158 169 180 187
261 320 268 273 345 4 238 272 258 260 281 295 295 312 256 161 167 331 179 181 192 176 173 173 167 169 169 165 173 172 163 152 152 153 155 157 163 159 165 164 174 189 192 201
214 263 287 281 224 289 340 359 356 22 305 352 310 302 259 23 336 187 217 197 192 182 170 174 167 161 158 165 159 141 143 151 156 171 171 174 166 172 167 179 195 196 189 205
205 229 205 1 231 250 293 300 335 213 301 346 342 334 161 166 117 273 61 183 168 158 154 149 147 139 147 149 147 150 161 166 184 181 183 169 165 166 181 193 194 186 192 211
1 319 226 244 268 284 242 239 216 77 256 310 321 304 151 188 250 306 340 128 157 160 157 137 148 161 164 153 152 162 160 191 182 160 154 157 171 185 193 178 164 171 198 215
183 165 214 69 249 286 167 104 213 228 220 269 300 310 225 139 180 326 338 64 138 142 133 152 147 151 145 148 151 153 185 173 167 153 160 170 188 191 169 177 176 174 179 202
283 198 202 185 225 246 216 223 224 193 265 261 287 295 295 234 146 152 239 249 177 165 149 151 153 140 151 159 164 174 191 155 148 148 171 193 173 176 165 166 184 198 177 197
246 185 224 21 260 240 255 264 252 223 214 223 258 297 292 280 224 132 149 161 164 161 162 147 139 155 170 180 175 176 151 152 148 164 187 163 179 178 182 199 183 177 199 218
211 140 214 264 281 275 268 222 289 253 231 246 272 289 300 314 307 338 320 158 164 164 153 154 164 167 182 166 172 158 152 149 171 154 163 175 172 194 203 209 203 208 221 204
182 202 180 225 234 195 264 303 312 332 217 226 211 262 275 238 257 294 263 207 178 175 148 146 164 159 178 173 181 185 148 153 152 176 178 194 195 192 202 204 261 245 248 245